Date,TemperatureHighF,TemperatureAvgF,TemperatureLowF,DewpointHighF,DewpointAvgF,DewpointLowF,HumidityHigh,HumidityAvg,HumidityLow,PressureMaxIn,PressureMinIn,WindSpeedMaxMPH,WindSpeedAvgMPH,GustSpeedMaxMPH,PrecipitationSumIn
2013-1-1,27.0,15.4,-3.0,23.0,11.7,-8.0,89,85,80,30.19,30.10,20,8,0,0.00
2013-1-2,26.0,20.7,17.0,22.0,15.6,12.0,85,80,73,30.40,30.14,19,12,0,0.00
2013-1-3,31.0,15.4,3.0,17.0,8.1,-1.0,86,73,54,30.37,30.15,12,2,0,0.00
2013-1-4,31.0,17.9,0.0,22.0,10.3,-5.0,83,72,59,30.20,30.05,21,3,0,0.00
2013-1-5,26.0,16.4,9.0,18.0,10.8,5.0,86,78,71,30.29,30.05,23,7,0,0.00
2013-1-6,32.0,21.1,4.0,22.0,14.1,-1.0,89,75,61,30.26,29.85,15,4,0,0.00
2013-1-7,32.0,26.0,15.0,22.0,17.9,9.0,85,71,63,29.92,29.66,14,7,0,0.00
2013-1-8,35.0,29.3,17.0,29.0,23.3,11.0,88,78,68,30.04,29.58,18,12,0,0.00
2013-1-9,42.0,29.6,13.0,30.0,20.6,7.0,82,69,56,30.09,29.71,11,3,0,0.00
2013-1-10,40.0,28.9,17.0,30.0,23.8,14.0,88,81,66,29.71,29.49,16,6,0,0.00
2013-1-11,17.0,7.9,0.0,14.0,4.1,-5.0,92,83,80,30.20,29.70,21,14,0,0.00
2013-1-12,6.0,-2.1,-12.0,0.0,-7.4,-17.0,80,78,74,30.40,30.20,18,6,0,0.00
2013-1-13,5.0,-1.0,-11.0,1.0,-5.7,-16.0,83,80,77,30.43,30.35,8,3,0,0.00
2013-1-14,15.0,4.4,-10.0,8.0,-0.5,-15.0,83,80,75,30.38,30.10,11,2,0,0.00
2013-1-15,35.0,27.9,11.0,30.0,23.5,6.0,91,84,76,30.11,29.80,28,15,0,0.00
2013-1-16,36.0,34.0,31.0,30.0,28.6,27.0,87,80,75,30.24,29.82,21,11,0,0.00
2013-1-17,38.0,32.5,26.0,29.0,26.5,22.0,86,79,66,30.32,29.84,12,6,0,0.00
2013-1-18,39.0,34.3,28.0,28.0,26.1,21.0,81,72,62,29.86,29.75,17,8,0,0.00
2013-1-19,33.0,16.1,7.0,29.0,10.2,0.0,84,77,68,30.40,29.84,23,10,0,0.00
2013-1-20,9.0,-3.0,-14.0,5.0,-9.4,-21.0,90,73,61,30.76,30.35,17,9,0,0.00
2013-1-21,4.0,-1.3,-9.0,-1.0,-8.6,-16.0,82,70,57,30.68,30.38,11,4,0,0.00
2013-1-22,17.0,7.4,0.0,12.0,3.0,-4.0,84,81,78,30.38,30.24,13,4,0,0.00
2013-1-23,6.0,2.2,-3.0,0.0,-3.4,-8.0,92,77,67,30.60,30.35,18,6,0,0.00
2013-1-24,35.0,17.7,5.0,25.0,11.8,-1.0,86,78,66,30.35,29.98,21,12,0,0.00
2013-1-25,25.0,15.3,6.0,20.0,11.0,2.0,92,83,78,30.21,30.02,12,5,0,0.00
2013-1-26,40.0,26.8,17.0,30.0,21.1,13.0,89,79,66,30.02,29.80,12,1,0,0.00
2013-1-27,32.0,25.0,15.0,29.0,21.6,12.0,96,87,84,29.85,29.75,14,6,0,0.00
2013-1-28,34.0,24.5,9.0,25.0,18.9,4.0,87,79,65,29.85,29.77,8,2,0,0.00
2013-1-29,15.0,5.6,-6.0,11.0,1.2,-12.0,93,82,75,30.36,29.75,20,8,0,0.00
2013-1-30,-1.0,-5.5,-10.0,-8.0,-12.0,-16.0,76,73,66,30.35,30.15,18,6,0,0.00
2013-1-31,9.0,-6.2,-22.0,2.0,-13.5,-28.0,77,70,61,30.62,30.24,10,5,0,0.00
2013-2-1,27.0,19.7,8.0,24.0,15.6,2.0,90,84,75,30.26,30.10,15,6,0,0.00
2013-2-2,33.0,27.6,21.0,28.0,23.3,18.0,91,84,75,30.24,30.08,25,11,0,0.00
2013-2-3,29.0,20.8,16.0,23.0,16.7,12.0,89,84,76,30.11,29.87,11,3,0,0.00
2013-2-4,38.0,30.4,23.0,31.0,25.1,19.0,88,80,69,30.01,29.70,16,9,0,0.00
2013-2-5,36.0,28.4,19.0,27.0,22.4,14.0,84,78,65,30.00,29.72,16,6,0,0.00
2013-2-6,37.0,30.0,21.0,28.0,24.2,18.0,90,79,69,30.03,29.68,17,5,0,0.00
2013-2-7,32.0,24.4,11.0,29.0,21.6,7.0,90,89,85,30.15,30.03,11,4,0,0.00
2013-2-8,32.0,23.7,15.0,26.0,19.7,12.0,90,85,75,30.03,29.95,10,4,0,0.00
2013-2-9,38.0,20.4,5.0,27.0,15.9,1.0,89,83,64,30.00,29.89,3,0,0,0.00
2013-2-10,27.0,21.9,16.0,24.0,17.8,11.0,92,84,78,30.18,29.93,20,13,0,0.00
2013-2-11,32.0,21.0,13.0,20.0,14.5,9.0,85,76,57,30.18,29.94,11,6,0,0.00
2013-2-12,38.0,27.3,18.0,28.0,20.7,13.0,84,76,64,30.02,29.80,14,8,0,0.00
2013-2-13,37.0,32.8,24.0,31.0,26.8,19.0,90,79,72,29.92,29.66,25,12,0,0.00
2013-2-14,28.0,23.3,10.0,24.0,18.1,6.0,87,80,72,30.38,29.92,27,14,0,0.00
2013-2-15,35.0,21.0,5.0,27.0,13.9,0.0,85,74,59,30.48,30.02,11,2,0,0.00
2013-2-16,45.0,35.0,28.0,33.0,27.8,23.0,85,75,61,30.02,29.65,13,4,0,0.00
2013-2-17,38.0,31.1,17.0,31.0,25.9,14.0,91,81,71,29.93,29.52,24,12,0,0.00
2013-2-18,17.0,9.6,-2.0,14.0,5.3,-9.0,87,82,77,30.43,29.92,19,9,0,0.00
2013-2-19,9.0,0.9,-9.0,0.0,-6.4,-14.0,80,71,58,30.45,30.22,22,13,0,0.00
2013-2-20,19.0,9.4,2.0,10.0,1.9,-5.0,81,71,64,30.23,30.09,19,8,0,0.00
2013-2-21,27.0,18.6,10.0,20.0,13.0,5.0,92,79,68,30.18,30.04,11,4,0,0.00
2013-2-22,39.0,25.0,13.0,27.0,18.3,10.0,87,76,55,30.05,29.71,8,4,0,0.00
2013-2-23,42.0,32.3,23.0,30.0,23.4,16.0,79,70,54,29.86,29.62,7,3,0,0.00
2013-2-24,37.0,29.7,22.0,27.0,21.6,18.0,86,72,52,30.10,29.86,14,8,0,0.00
2013-2-25,44.0,32.0,20.0,29.0,21.7,14.0,80,66,50,30.01,29.80,12,3,0,0.00
2013-2-26,32.0,28.6,23.0,26.0,23.3,18.0,89,80,77,30.20,29.82,17,9,0,0.00
2013-2-27,28.0,25.9,24.0,23.0,21.5,19.0,87,83,76,30.34,30.20,13,5,0,0.00
2013-2-28,40.0,27.0,19.0,27.0,21.2,15.0,92,80,55,30.31,30.20,14,5,0,0.00
2013-3-1,41.0,28.4,16.0,28.0,21.6,13.0,89,77,57,30.35,30.10,10,3,0,0.00
2013-3-2,46.0,36.9,31.0,36.0,31.0,27.0,88,79,68,30.11,29.85,11,4,0,0.00
2013-3-3,41.0,33.4,31.0,37.0,30.4,27.0,92,89,81,29.85,29.55,17,6,0,0.00
2013-3-4,31.0,17.0,8.0,29.0,14.1,4.0,92,88,85,30.48,29.64,22,14,0,0.00
2013-3-5,22.0,10.0,4.0,18.0,5.9,0.0,86,84,79,30.58,30.41,13,4,0,0.00
2013-3-6,23.0,15.1,4.0,20.0,11.8,0.0,88,86,83,30.41,29.99,21,12,0,0.00
2013-3-7,31.0,21.5,13.0,28.0,18.5,10.0,89,88,86,30.24,29.98,16,7,0,0.00
2013-3-8,26.0,18.5,8.0,24.0,15.3,4.0,91,87,85,30.27,30.03,12,4,0,0.00
2013-3-9,28.0,22.6,8.0,26.0,19.4,2.0,92,87,83,30.34,29.99,16,8,0,0.00
2013-3-10,37.0,17.3,0.0,30.0,12.9,-4.0,87,83,75,30.41,30.00,10,2,0,0.00
2013-3-11,34.0,26.8,17.0,27.0,21.5,11.0,85,80,72,30.27,29.90,28,16,0,0.00
2013-3-12,28.0,17.8,6.0,18.0,11.7,2.0,84,77,55,30.44,30.25,20,9,0,0.00
2013-3-13,55.0,36.3,24.0,42.0,28.9,18.0,88,75,59,30.25,29.96,14,5,0,0.00
2013-3-14,51.0,35.9,27.0,40.0,30.7,24.0,92,81,64,30.10,30.02,11,4,0,0.00
2013-3-15,28.0,23.5,11.0,25.0,20.3,6.0,90,88,83,30.25,29.88,16,8,0,0.00
2013-3-16,16.0,12.4,8.0,12.0,7.7,3.0,89,81,77,30.29,30.03,17,6,0,0.00
2013-3-17,29.0,18.4,3.0,25.0,14.6,-2.0,89,85,79,30.04,29.53,28,16,0,0.00
2013-3-18,24.0,9.9,-1.0,15.0,3.5,-6.0,82,75,60,30.15,29.96,19,8,0,0.00
2013-3-19,16.0,10.1,3.0,12.0,3.9,-2.0,86,76,62,30.53,30.06,13,6,0,0.00
2013-3-20,37.0,21.8,5.0,20.0,11.4,-1.0,81,65,41,30.49,29.87,23,13,0,0.00
2013-3-21,26.0,22.9,20.0,19.0,13.9,8.0,89,69,52,29.96,29.78,23,13,0,0.00
2013-3-22,23.0,18.6,7.0,20.0,15.0,3.0,89,86,81,30.20,29.93,14,7,0,0.00
2013-3-23,18.0,10.2,1.0,12.0,5.5,-3.0,85,81,75,30.43,30.20,16,10,0,0.00
2013-3-24,19.0,9.6,-2.0,14.0,5.1,-8.0,84,82,77,30.54,30.42,13,7,0,0.00
2013-3-25,21.0,4.2,-14.0,15.0,-1.0,-19.0,85,79,74,30.55,30.35,11,4,0,0.00
2013-3-26,38.0,20.8,8.0,27.0,14.6,4.0,85,77,64,30.37,30.13,13,8,0,0.00
2013-3-27,40.0,22.7,7.0,32.0,17.8,3.0,87,82,69,30.21,30.15,5,1,0,0.00
2013-3-28,47.0,31.8,19.0,35.0,25.5,16.0,90,78,58,30.21,30.15,7,2,0,0.00
2013-3-29,55.0,38.8,30.0,42.0,33.2,27.0,89,81,56,30.15,30.00,10,3,0,0.00
2013-3-30,46.0,34.3,25.0,37.0,28.6,-99.9,92,83,70,30.15,30.05,19,5,0,0.00
2013-3-31,29.0,25.5,20.0,24.0,20.2,14.0,88,80,70,30.32,30.09,9,4,0,0.00
2013-4-1,40.0,27.3,17.0,27.0,19.9,13.0,84,74,57,30.34,30.24,7,3,0,0.00
2013-4-2,52.0,34.6,20.0,33.0,25.2,17.0,90,71,41,30.26,29.93,13,6,0,0.00
2013-4-3,53.0,40.7,29.0,37.0,28.1,21.0,77,61,46,30.19,29.81,24,9,0,0.00
2013-4-4,45.0,34.2,28.0,27.0,23.7,21.0,83,66,45,30.25,30.01,13,5,0,0.00
2013-4-5,62.0,43.1,30.0,42.0,31.3,23.0,86,65,37,30.02,29.58,18,9,0,0.00
2013-4-6,46.0,37.3,31.0,41.0,32.8,28.0,90,84,73,29.83,29.62,12,4,0,0.00
2013-4-7,58.0,40.5,29.0,41.0,31.4,26.0,92,74,33,29.81,29.60,14,9,0,0.00
2013-4-8,31.0,20.3,11.0,28.0,16.3,7.0,91,84,77,30.51,29.78,17,12,0,0.00
2013-4-9,31.0,19.0,5.0,22.0,12.9,1.0,85,77,61,30.63,30.50,8,4,0,0.00
2013-4-10,38.0,26.5,14.0,22.0,16.7,10.0,88,68,45,30.51,29.99,12,5,0,0.00
2013-4-11,40.0,31.2,22.0,27.0,21.1,17.0,83,67,42,29.99,29.88,13,6,0,0.00
2013-4-12,37.0,31.2,25.0,30.0,26.6,21.0,89,83,70,30.00,29.92,12,5,0,0.00
2013-4-13,47.0,33.6,22.0,31.0,25.2,19.0,91,73,50,29.93,29.54,21,12,0,0.00
2013-4-14,29.0,24.0,22.0,26.0,21.3,19.0,90,89,84,29.98,29.64,14,11,0,0.00
2013-4-15,28.0,24.7,20.0,25.0,22.3,17.0,98,90,89,30.17,29.96,15,9,0,0.00
2013-4-16,27.0,23.8,18.0,25.0,21.3,15.0,91,90,89,30.42,30.16,7,4,0,0.00
2013-4-17,28.0,23.3,15.0,25.0,20.7,11.0,91,90,88,30.42,30.34,10,4,0,0.00
2013-4-18,36.0,22.4,6.0,34.0,19.6,2.0,93,88,85,30.34,30.06,8,2,0,0.00
2013-4-19,36.0,31.3,26.0,30.0,24.8,21.0,99,78,57,30.08,29.98,14,9,0,0.00
2013-4-20,43.0,33.3,26.0,36.0,27.7,20.0,90,80,70,29.98,29.83,20,11,0,0.00
2013-4-21,39.0,33.2,22.0,36.0,25.3,17.0,92,73,53,30.33,29.85,19,11,0,0.00
2013-4-22,35.0,25.5,16.0,18.0,14.4,12.0,86,65,40,30.53,30.33,12,5,0,0.00
2013-4-23,49.0,34.5,19.0,28.0,19.6,13.0,87,59,27,30.42,30.04,19,7,0,0.00
2013-4-24,43.0,33.6,27.0,29.0,23.3,19.0,91,69,40,30.13,29.98,22,11,0,0.00
2013-4-25,65.0,46.9,29.0,33.0,26.9,21.0,74,49,26,29.98,29.73,21,8,0,0.00
2013-4-26,75.0,54.0,29.0,36.0,30.1,23.0,85,47,20,29.98,29.85,15,5,0,0.00
2013-4-27,75.0,59.8,43.0,37.0,33.8,30.0,64,40,22,29.86,29.60,21,8,0,0.00
2013-4-28,64.0,54.4,44.0,35.0,30.0,25.0,60,41,24,29.84,29.62,16,7,0,0.00
2013-4-29,66.0,51.5,39.0,38.0,32.8,27.0,77,51,29,29.69,29.31,21,10,0,0.00
2013-4-30,43.0,33.6,21.0,32.0,23.9,14.0,86,68,52,30.27,29.46,26,16,0,0.00
2013-5-1,48.0,33.4,18.0,22.0,15.4,10.0,92,53,22,30.66,30.27,16,6,0,0.00
2013-5-2,59.0,41.2,22.0,22.0,18.7,14.0,81,45,20,30.66,30.35,9,3,0,0.00
2013-5-3,66.0,49.1,30.0,28.0,23.7,19.0,68,40,21,30.35,30.09,13,9,0,0.00
2013-5-4,62.0,49.2,32.0,26.0,22.9,19.0,62,37,24,30.27,30.18,11,6,0,0.00
2013-5-5,67.0,49.3,27.0,32.0,27.4,20.0,79,47,26,30.26,30.05,8,2,0,0.00
2013-5-6,72.0,55.3,33.0,35.0,30.4,26.0,80,44,23,30.07,29.87,10,4,0,0.00
2013-5-7,78.0,61.1,41.0,34.0,30.1,25.0,55,34,18,29.88,29.72,11,5,0,0.00
2013-5-8,62.0,52.9,42.0,41.0,35.5,23.0,74,53,39,30.15,29.83,13,8,0,0.00
2013-5-9,64.0,51.1,39.0,33.0,26.3,23.0,56,39,24,30.21,30.06,13,7,0,0.00
2013-5-10,61.0,48.8,35.0,44.0,26.5,-99.9,85,47,25,30.34,30.00,22,10,0,0.00
2013-5-11,60.0,44.1,25.0,25.0,20.4,-99.9,80,43,24,30.43,30.15,10,4,0,0.00
2013-5-12,83.0,59.7,35.0,46.0,31.7,17.0,52,36,23,30.16,29.67,13,8,0,0.00
2013-5-13,89.0,71.9,55.0,54.0,45.7,40.0,69,42,22,29.71,29.35,21,10,0,0.00
2013-5-14,72.0,60.5,47.0,54.0,41.6,34.0,89,52,30,29.79,29.35,31,14,0,0.00
2013-5-15,73.0,58.6,45.0,40.0,34.7,31.0,71,44,22,29.90,29.80,11,4,0,0.00
2013-5-16,69.0,52.3,43.0,48.0,23.2,-99.9,82,56,43,29.81,29.73,14,7,0,0.00
2013-5-17,68.0,58.3,52.0,51.0,44.4,-99.9,83,70,52,29.79,29.71,9,3,0,0.00
2013-5-18,71.0,61.1,52.0,55.0,51.5,48.0,87,72,51,29.76,29.68,10,5,0,0.00
2013-5-20,56.0,51.1,47.0,51.0,47.2,45.0,91,87,77,29.94,29.80,21,15,0,0.00
2013-5-21,57.0,52.8,43.0,44.0,41.1,36.0,77,65,55,29.98,29.92,16,10,0,0.00
2013-5-22,67.0,60.0,41.0,46.0,36.3,29.0,90,45,28,30.02,29.98,17,11,0,0.00
2013-5-23,68.0,62.0,43.0,45.0,42.5,40.0,88,51,37,30.08,29.86,29,21,0,0.00
2013-5-24,71.0,61.8,53.0,48.0,44.9,40.0,75,56,33,29.86,29.70,25,10,0,0.00
2013-5-25,71.0,63.7,51.0,57.0,52.9,47.0,87,69,57,29.87,29.71,20,15,0,0.00
2013-5-26,76.0,68.6,53.0,57.0,54.6,51.0,92,63,48,29.85,29.71,12,4,0,0.00
2013-5-27,65.0,60.5,52.0,56.0,54.5,50.0,93,81,68,29.67,29.57,7,4,0,0.00
2013-5-28,68.0,62.6,50.0,56.0,52.3,48.0,93,70,56,29.57,29.54,10,6,0,0.00
2013-5-29,69.0,63.9,49.0,55.0,52.9,46.0,93,68,59,29.57,29.46,13,9,0,0.00
2013-5-30,53.0,52.2,51.0,51.0,49.3,48.0,92,91,89,29.42,29.38,18,14,0,0.00
2013-5-31,52.0,49.9,49.0,49.0,46.2,42.0,95,87,76,30.00,29.50,17,10,0,0.00
2013-6-1,62.0,50.8,37.0,43.0,38.7,-99.9,91,68,43,30.15,30.00,9,4,0,0.00
2013-6-2,68.0,55.2,40.0,46.0,42.3,36.0,90,64,41,30.07,29.80,15,8,0,0.00
2013-6-3,55.0,48.0,46.0,46.0,43.3,41.0,91,85,65,29.83,29.61,22,15,0,0.00
2013-6-4,53.0,47.2,43.0,45.0,43.0,41.0,91,86,73,30.17,29.83,15,9,0,0.00
2013-6-5,67.0,54.1,38.0,47.0,42.0,35.0,92,67,41,30.17,30.02,5,2,0,0.00
2013-6-6,73.0,59.9,43.0,53.0,46.2,39.0,90,64,39,30.02,29.89,9,4,0,0.00
2013-6-7,72.0,59.1,43.0,56.0,48.5,40.0,92,71,39,29.91,29.55,8,3,0,0.00
2013-6-8,66.0,58.4,50.0,55.0,51.9,44.0,93,80,58,29.79,29.52,21,9,0,0.00
2013-6-9,79.0,62.8,43.0,56.0,48.7,40.0,93,65,35,29.84,29.58,15,4,0,0.00
2013-6-10,74.0,63.0,50.0,54.0,50.2,46.0,90,65,41,29.81,29.63,10,5,0,0.00
2013-6-11,77.0,62.8,52.0,55.0,50.1,46.0,85,66,38,29.92,29.75,14,6,0,0.00
2013-6-12,73.0,63.2,54.0,56.0,53.1,49.0,89,71,52,29.99,29.79,12,6,0,0.00
2013-6-13,76.0,66.7,55.0,57.0,54.2,52.0,89,65,49,29.96,29.67,23,14,0,0.00
2013-6-14,70.0,61.6,48.0,56.0,51.1,42.0,90,70,42,29.83,29.53,20,10,0,0.00
2013-6-15,73.0,60.4,47.0,49.0,45.1,40.0,85,59,40,29.86,29.80,18,9,0,0.00
2013-6-16,71.0,59.9,46.0,52.0,47.9,42.0,88,67,45,30.00,29.83,20,9,0,0.00
2013-6-17,73.0,58.5,44.0,54.0,49.6,41.0,92,74,49,30.07,29.98,6,2,0,0.00
2013-6-18,80.0,65.5,50.0,59.0,53.4,47.0,90,68,42,30.00,29.70,14,8,0,0.00
2013-6-19,85.0,71.8,58.0,62.0,57.8,54.0,88,64,40,29.72,29.45,24,14,0,0.00
2013-6-20,74.0,64.6,57.0,62.0,57.9,51.0,91,80,44,29.74,29.40,19,10,0,0.00
2013-6-22,69.0,63.1,56.0,59.0,55.9,52.0,93,78,63,29.89,29.76,8,3,0,0.00
2013-6-23,74.0,62.4,53.0,56.0,52.2,48.0,91,72,43,29.77,29.64,14,6,0,0.00
2013-6-24,82.0,68.2,49.0,67.0,58.2,46.0,92,72,53,29.67,29.45,13,5,0,0.00
2013-6-25,76.0,68.3,59.0,63.0,59.2,53.0,89,74,51,29.63,29.44,21,7,0,0.00
2013-6-26,77.0,65.9,53.0,60.0,54.3,50.0,92,69,43,29.86,29.63,17,6,0,0.00
2013-6-27,78.0,66.2,53.0,57.0,52.2,48.0,88,64,38,30.02,29.86,18,7,0,0.00
2013-6-28,80.0,67.3,51.0,60.0,54.1,47.0,90,65,45,30.08,30.01,11,4,0,0.00
2013-6-29,78.0,64.9,48.0,59.0,53.0,45.0,91,68,49,30.07,30.01,9,4,0,0.00
2013-6-30,78.0,66.4,50.0,60.0,55.2,47.0,92,69,48,30.08,30.02,9,4,0,0.00
2013-7-1,83.0,70.9,56.0,64.0,58.0,51.0,85,66,44,30.10,30.00,9,5,0,0.00
2013-7-2,84.0,71.6,56.0,63.0,56.0,50.0,80,60,36,30.03,29.84,9,4,0,0.00
2013-7-3,91.0,76.0,59.0,68.0,59.1,50.0,81,58,37,29.84,29.56,10,5,0,0.00
2013-7-4,82.0,73.0,63.0,66.0,61.1,57.0,89,68,45,29.71,29.59,10,5,0,0.00
2013-7-5,86.0,69.6,60.0,67.0,59.8,54.0,89,72,47,29.67,29.54,14,5,0,0.00
2013-7-6,76.0,67.7,59.0,62.0,58.4,53.0,91,74,48,29.81,29.59,17,8,0,0.00
2013-7-7,77.0,66.6,55.0,64.0,57.3,51.0,91,74,53,29.87,29.79,8,4,0,0.00
2013-7-8,82.0,68.5,60.0,66.0,60.6,56.0,91,77,54,29.84,29.67,19,5,0,0.00
2013-7-9,71.0,63.1,55.0,59.0,55.6,51.0,93,78,58,30.04,29.80,17,7,0,0.00
2013-7-10,80.0,66.4,49.0,63.0,53.8,-99.9,95,69,47,30.05,29.78,9,3,0,0.00
2013-7-11,98.0,75.9,61.0,71.0,63.8,58.0,91,70,35,29.78,29.45,15,7,0,0.00
2013-7-12,86.0,74.7,61.0,65.0,57.7,47.0,84,59,26,29.75,29.52,12,4,0,0.00
2013-7-13,91.0,69.4,53.0,68.0,58.0,48.0,87,69,44,30.09,29.70,28,9,0,0.00
2013-7-14,70.0,60.0,51.0,55.0,51.4,47.0,89,74,55,30.18,30.04,10,5,0,0.00
2013-7-15,85.0,71.4,55.0,71.0,63.0,51.0,89,76,59,30.09,29.71,16,10,0,0.00
2013-7-16,71.0,64.7,58.0,64.0,56.0,50.0,90,74,59,30.12,29.73,15,7,0,0.00
2013-7-17,72.0,65.2,58.0,64.0,58.2,55.0,91,79,68,30.12,29.88,11,5,0,0.00
2013-7-18,87.0,70.8,55.0,65.0,56.3,49.0,92,65,27,29.90,29.78,22,8,0,0.00
2013-7-19,86.0,68.7,49.0,60.0,53.3,46.0,93,63,29,29.91,29.77,12,3,0,0.00
2013-7-20,77.0,65.3,55.0,60.0,54.9,-99.9,90,72,50,29.90,29.76,10,4,0,0.00
2013-7-21,90.0,70.7,57.0,66.0,57.7,52.0,92,67,34,29.76,29.52,20,9,0,0.00
2013-7-22,74.0,62.7,48.0,55.0,51.9,45.0,92,70,48,29.87,29.73,10,4,0,0.00
2013-7-23,76.0,65.8,53.0,59.0,55.1,49.0,90,70,51,29.99,29.85,13,3,0,0.00
2013-7-24,84.0,66.5,49.0,62.0,53.8,46.0,93,67,37,30.01,29.86,12,2,0,0.00
2013-7-25,68.0,61.0,50.0,55.0,49.4,42.0,91,67,46,30.17,29.89,13,6,0,0.00
2013-7-26,69.0,57.1,47.0,48.0,45.4,42.0,91,67,42,30.26,30.14,9,4,0,0.00
2013-7-27,74.0,59.2,42.0,48.0,43.4,37.0,87,59,37,30.17,29.87,16,9,0,0.00
2013-7-28,76.0,62.9,46.0,59.0,48.0,38.0,77,59,47,29.89,29.72,21,8,0,0.00
2013-7-29,74.0,63.2,52.0,58.0,53.1,47.0,90,71,52,29.97,29.75,16,6,0,0.00
2013-7-30,74.0,61.7,48.0,59.0,53.0,45.0,92,75,53,30.09,29.96,11,3,0,0.00
2013-7-31,78.0,62.6,44.0,54.0,47.0,41.0,92,61,36,30.13,30.00,15,4,0,0.00
2013-8-1,78.0,62.4,45.0,55.0,47.6,41.0,89,62,36,30.03,29.85,6,2,0,0.00
2013-8-2,72.0,61.8,53.0,57.0,52.0,47.0,87,72,45,30.03,29.87,16,3,0,0.00
2013-8-3,78.0,65.7,54.0,59.0,55.3,51.0,89,71,47,30.07,29.91,13,8,0,0.00
2013-8-4,76.0,63.2,54.0,61.0,56.4,51.0,93,80,55,29.96,29.85,7,3,0,0.00
2013-8-5,84.0,65.5,49.0,62.0,54.0,46.0,93,70,38,29.90,29.60,10,2,0,0.00
2013-8-6,76.0,61.5,53.0,59.0,54.1,50.0,92,79,48,29.91,29.68,16,7,0,0.00
2013-8-7,68.0,59.2,51.0,54.0,49.0,43.0,92,72,41,30.00,29.91,9,4,0,0.00
2013-8-8,73.0,60.0,45.0,52.0,47.4,42.0,92,67,40,30.08,29.99,6,2,0,0.00
2013-8-9,73.0,62.0,52.0,51.0,47.7,45.0,81,61,42,30.13,30.05,6,2,0,0.00
2013-8-10,79.0,61.4,52.0,61.0,53.5,48.0,89,77,50,30.09,29.89,14,6,0,0.00
2013-8-11,75.0,62.8,53.0,59.0,55.5,50.0,93,79,56,30.06,29.97,10,5,0,0.00
2013-8-12,78.0,66.1,55.0,61.0,55.2,50.0,87,70,49,30.03,29.96,9,5,0,0.00
2013-8-13,80.0,63.6,56.0,62.0,54.0,-99.9,91,74,51,30.04,29.92,14,6,0,0.00
2013-8-14,78.0,64.8,56.0,62.0,55.8,-99.9,93,79,51,29.99,29.88,13,4,0,0.00
2013-8-15,84.0,60.6,49.0,63.0,42.6,-99.9,93,69,40,29.94,29.86,5,1,0,0.00
2013-8-16,91.0,73.6,61.0,63.0,54.5,-99.9,86,58,29,29.87,29.73,9,4,0,0.00
2013-8-17,91.0,73.2,61.0,64.0,58.7,-99.9,86,64,37,29.75,29.67,13,4,0,0.00
2013-8-18,90.0,69.8,56.0,62.0,55.6,52.0,92,66,28,29.88,29.74,22,4,0,0.00
2013-8-19,90.0,72.3,61.0,59.0,43.6,-99.9,74,49,25,29.78,29.64,12,4,0,0.00
2013-8-20,88.0,73.4,57.0,55.0,49.1,-99.9,79,47,27,29.76,29.60,17,7,0,0.00
2013-8-21,78.0,66.6,51.0,54.0,50.1,45.0,91,58,39,30.04,29.76,12,7,0,0.00
2013-8-22,84.0,70.1,52.0,58.0,50.7,43.0,77,52,39,30.08,29.83,17,10,0,0.00
2013-8-23,93.0,75.9,60.0,65.0,59.4,52.0,85,60,34,29.84,29.52,12,6,0,0.00
2013-8-24,84.0,72.0,61.0,60.0,55.1,-99.9,82,58,39,29.74,29.54,11,3,0,0.00
2013-8-25,88.0,73.3,53.0,63.0,56.4,49.0,89,59,34,29.84,29.73,9,3,0,0.00
2013-8-26,91.0,76.2,61.0,66.0,60.6,55.0,83,60,40,29.79,29.67,8,3,0,0.00
2013-8-27,85.0,69.4,61.0,61.0,57.7,56.0,89,68,39,29.84,29.70,9,3,0,0.00
2013-8-28,89.0,83.1,75.0,68.0,66.5,60.0,75,58,48,29.82,29.69,11,8,0,0.00
2013-8-29,89.0,73.1,60.0,66.0,62.2,57.0,93,72,40,29.85,29.72,11,3,0,0.00
2013-8-30,90.0,74.2,63.0,66.0,60.7,57.0,87,66,36,29.85,29.67,6,2,0,0.00
2013-8-31,78.0,65.0,55.0,57.0,49.3,-99.9,87,61,33,29.95,29.68,21,9,0,0.00
2013-9-1,75.0,62.1,51.0,58.0,53.4,48.0,92,75,48,30.02,29.91,8,2,0,0.00
2013-9-2,90.0,68.2,51.0,59.0,53.5,48.0,90,64,31,29.92,29.76,10,7,0,0.00
2013-9-3,94.0,76.7,64.0,62.0,57.1,53.0,78,54,29,29.87,29.75,9,4,0,0.00
2013-9-4,82.0,71.1,61.0,63.0,58.9,55.0,86,66,50,29.96,29.87,13,8,0,0.00
2013-9-5,95.0,76.9,65.0,67.0,61.0,55.0,82,60,33,29.94,29.73,13,5,0,0.00
2013-9-6,91.0,77.5,67.0,68.0,62.3,60.0,87,62,36,29.82,29.73,10,3,0,0.00
2013-9-7,73.0,65.8,59.0,64.0,59.0,-99.9,90,81,71,29.92,29.80,14,7,0,0.00
2013-9-8,71.0,63.6,58.0,62.0,58.3,55.0,92,83,71,29.91,29.69,8,2,0,0.00
2013-9-9,75.0,63.5,53.0,59.0,55.2,49.0,92,76,45,29.81,29.64,16,6,0,0.00
2013-9-10,80.0,64.3,49.0,59.0,51.3,46.0,93,67,37,29.98,29.80,18,5,0,0.00
2013-9-11,78.0,64.1,50.0,52.0,46.0,40.0,89,57,30,30.20,29.98,10,2,0,0.00
2013-9-12,78.0,62.1,39.0,48.0,43.2,35.0,89,53,31,30.26,30.05,8,4,0,0.00
2013-9-13,87.0,69.4,53.0,57.0,51.4,45.0,78,56,31,30.05,29.64,14,8,0,0.00
2013-9-14,77.0,63.5,48.0,60.0,52.3,-99.9,90,70,49,30.03,29.61,15,4,0,0.00
2013-9-15,68.0,54.4,44.0,49.0,42.3,37.0,90,67,38,30.18,30.03,12,6,0,0.00
2013-9-16,80.0,62.8,46.0,55.0,49.5,40.0,89,65,40,30.10,29.66,17,10,0,0.00
2013-9-17,87.0,68.7,54.0,59.0,53.9,49.0,87,62,34,29.66,29.45,18,3,0,0.00
2013-9-18,59.0,57.0,51.0,56.0,52.9,44.0,92,87,72,29.68,29.44,11,3,0,0.00
2013-9-19,53.0,47.2,36.0,46.0,40.8,33.0,92,79,65,30.06,29.68,17,8,0,0.00
2013-9-20,70.0,49.3,31.0,48.0,35.8,29.0,93,65,32,30.08,29.85,7,2,0,0.00
2013-9-21,80.0,57.8,39.0,47.0,39.3,-99.9,82,55,29,29.85,29.49,14,9,0,0.00
2013-9-22,72.0,57.1,45.0,52.0,47.2,41.0,89,71,48,29.49,29.37,10,4,0,0.00
2013-9-23,69.0,56.6,44.0,49.0,43.3,33.0,87,64,36,29.77,29.40,15,5,0,0.00
2013-9-24,73.0,56.3,39.0,42.0,36.3,31.0,76,51,27,29.88,29.52,8,3,0,0.00
2013-9-25,62.0,54.8,47.0,47.0,44.4,39.0,90,69,49,29.59,29.47,21,7,0,0.00
2013-9-26,51.0,47.6,40.0,48.0,42.8,36.0,92,84,69,29.91,29.54,19,9,0,0.00
2013-9-27,52.0,44.6,36.0,39.0,35.2,30.0,90,71,46,29.91,29.80,10,2,0,0.00
2013-9-28,64.0,47.1,34.0,40.0,32.4,-99.9,89,62,34,29.81,29.68,19,5,0,0.00
2013-9-29,77.0,60.4,42.0,42.0,38.1,33.0,77,46,26,29.68,29.39,22,9,0,0.00
2013-9-30,72.0,51.4,38.0,48.0,38.4,32.0,87,64,33,29.58,29.34,20,5,0,0.00
2013-10-1,61.0,49.4,37.0,30.0,28.0,27.0,71,45,31,29.85,29.80,2,0,0,0.00
2013-10-2,61.0,49.8,34.0,34.0,29.1,25.0,81,47,27,30.01,29.85,14,6,0,0.00
2013-10-3,50.0,42.7,37.0,36.0,32.2,27.0,78,67,56,30.30,29.98,11,4,0,0.00
2013-10-4,39.0,35.5,24.0,34.0,29.2,20.0,89,78,59,30.40,30.28,12,7,0,0.00
2013-10-5,54.0,34.8,18.0,30.0,22.8,14.0,88,65,34,30.34,30.07,10,2,0,0.00
2013-10-6,70.0,48.2,27.0,41.0,32.6,21.0,89,59,31,30.09,29.93,14,5,0,0.00
2013-10-7,77.0,59.7,33.0,40.0,34.8,29.0,92,45,21,29.91,29.54,15,5,0,0.00
2013-10-8,64.0,53.4,42.0,36.0,31.6,29.0,71,46,28,29.85,29.54,18,6,0,0.00
2013-10-9,61.0,46.7,31.0,41.0,33.1,26.0,82,61,37,30.05,29.85,5,2,0,0.00
2013-10-10,64.0,50.2,36.0,44.0,39.8,33.0,88,70,44,29.93,29.60,11,4,0,0.00
2013-10-11,49.0,45.0,42.0,41.0,35.3,25.0,85,70,46,29.85,29.59,20,13,0,0.00
2013-10-12,53.0,39.7,27.0,29.0,22.3,-99.9,81,54,30,30.23,29.84,16,7,0,0.00
2013-10-13,55.0,45.8,23.0,32.0,27.0,18.0,88,50,32,30.33,30.22,9,5,0,0.00
2013-10-14,42.0,38.5,34.0,35.0,33.0,27.0,87,81,67,30.33,30.19,13,6,0,0.00
2013-10-15,53.0,35.4,22.0,32.0,24.6,18.0,88,68,35,30.36,30.07,9,3,0,0.00
2013-10-16,55.0,39.1,28.0,36.0,29.8,22.0,89,72,39,30.08,29.91,17,6,0,0.00
2013-10-17,46.0,37.1,28.0,34.0,28.2,22.0,89,72,38,30.14,30.05,13,6,0,0.00
2013-10-18,47.0,39.1,31.0,35.0,31.7,28.0,91,76,53,30.09,29.83,16,8,0,0.00
2013-10-19,59.0,45.3,34.0,36.0,31.9,-99.9,86,63,39,29.84,29.64,20,7,0,0.00
2013-10-20,47.0,37.0,29.0,38.0,27.9,21.0,88,70,47,30.02,29.69,23,12,0,0.00
2013-10-21,49.0,40.3,31.0,45.0,36.8,28.0,92,87,75,30.02,29.85,17,6,0,0.00
2013-10-22,48.0,40.0,30.0,38.0,34.5,27.0,91,81,64,30.11,29.97,9,2,0,0.00
2013-10-23,42.0,36.6,23.0,39.0,32.0,17.0,89,84,68,30.33,30.01,9,2,0,0.00
2013-10-24,45.0,32.0,20.0,33.0,25.2,17.0,92,77,55,30.40,30.19,6,2,0,0.00
2013-10-25,61.0,49.9,33.0,40.0,31.7,19.0,87,53,31,30.21,29.98,21,11,0,0.00
2013-10-26,62.0,38.4,16.0,32.0,22.4,-99.9,88,58,30,30.28,29.89,7,2,0,0.00
2013-10-27,43.0,34.2,26.0,32.0,26.1,18.0,87,72,59,30.39,29.86,15,8,0,0.00
2013-10-28,27.0,23.8,22.0,21.0,16.2,-99.9,88,76,69,30.53,30.39,13,9,0,0.00
2013-10-29,32.0,27.1,22.0,27.0,23.2,19.0,95,85,79,30.42,30.03,12,6,0,0.00
2013-10-30,48.0,34.9,26.0,34.0,28.3,21.0,89,77,55,30.03,29.67,9,4,0,0.00
2013-10-31,51.0,37.0,24.0,34.0,29.0,21.0,89,75,46,29.71,29.59,16,9,0,0.00
2013-11-1,51.0,40.3,26.0,33.0,28.9,18.0,84,65,40,30.05,29.70,23,14,0,0.00
2013-11-2,51.0,40.0,19.0,31.0,25.6,-99.9,87,60,45,30.06,29.59,13,5,0,0.00
2013-11-3,50.0,38.0,24.0,37.0,26.6,19.0,89,66,38,29.74,29.51,24,11,0,0.00
2013-11-4,32.0,26.7,16.0,21.0,15.0,8.0,76,61,45,30.19,29.74,25,16,0,0.00
2013-11-5,41.0,22.5,9.0,21.0,13.1,4.0,87,69,45,30.25,30.11,9,2,0,0.00
2013-11-6,38.0,27.5,14.0,21.0,14.9,8.0,84,60,43,30.35,30.11,13,5,0,0.00
2013-11-7,46.0,30.8,16.0,27.0,19.3,9.0,87,65,34,30.36,29.77,11,4,0,0.00
2013-11-8,49.0,39.2,33.0,39.0,31.5,24.0,91,75,53,29.92,29.59,26,13,0,0.00
2013-11-9,36.0,28.3,17.0,29.0,19.1,-99.9,85,71,57,30.29,29.95,18,8,0,0.00
2013-11-10,32.0,23.3,14.0,26.0,16.3,6.0,88,74,55,30.54,30.15,13,5,0,0.00
2013-11-11,23.0,13.0,2.0,13.0,6.7,-3.0,85,76,61,30.75,30.53,5,2,0,0.00
2013-11-12,47.0,28.0,8.0,33.0,21.5,4.0,89,77,57,30.70,30.10,9,2,0,0.00
2013-11-13,55.0,44.2,32.0,37.0,32.9,26.0,84,65,46,30.10,29.89,18,8,0,0.00
2013-11-14,50.0,35.5,22.0,31.0,27.1,18.0,92,73,47,29.92,29.71,15,5,0,0.00
2013-11-15,49.0,35.7,23.0,28.0,23.2,18.0,89,63,36,29.69,29.36,14,4,0,0.00
2013-11-16,40.0,34.3,32.0,32.0,27.4,-99.9,89,78,64,29.42,29.27,6,2,0,0.00
2013-11-17,32.0,26.5,15.0,30.0,23.0,11.0,91,86,75,30.01,29.42,14,5,0,0.00
2013-11-18,50.0,29.6,13.0,28.0,20.3,9.0,89,71,40,30.04,29.81,10,4,0,0.00
2013-11-19,56.0,34.4,15.0,33.0,23.5,9.0,80,67,36,29.83,29.49,13,5,0,0.00
2013-11-20,16.0,8.8,-5.0,10.0,3.6,-10.0,92,79,73,30.64,29.82,17,10,0,0.00
2013-11-21,14.0,5.8,-14.0,7.0,-0.1,-19.0,82,76,71,30.84,30.63,15,3,0,0.00
2013-11-22,14.0,6.1,-6.0,8.0,-0.2,-12.0,82,75,68,30.94,30.62,9,4,0,0.00
2013-11-23,25.0,10.0,-5.0,16.0,2.6,-99.9,80,74,66,30.94,30.29,11,5,0,0.00
2013-11-24,34.0,27.8,23.0,25.0,18.7,13.0,83,69,58,30.28,30.01,13,6,0,0.00
2013-11-25,30.0,22.2,15.0,20.0,16.0,10.0,84,77,65,30.49,30.14,17,8,0,0.00
2013-11-26,22.0,13.2,-5.0,15.0,7.7,-10.0,85,79,67,30.62,30.19,13,5,0,0.00
2013-11-27,33.0,23.4,11.0,23.0,17.2,8.0,88,77,67,30.35,30.03,17,7,0,0.00
2013-11-28,25.0,20.1,15.0,19.0,15.8,11.0,89,83,78,30.38,30.12,12,7,0,0.00
2013-11-29,38.0,23.2,10.0,28.0,18.0,6.0,89,81,67,30.15,30.03,11,3,0,0.00
2013-11-30,39.0,29.8,22.0,31.0,24.6,-99.9,90,84,71,30.21,30.09,8,2,0,0.00
2013-12-1,40.0,32.9,27.0,33.0,28.7,24.0,91,85,71,30.09,29.57,10,3,0,0.00
2013-12-2,35.0,26.6,16.0,32.0,24.1,12.0,92,89,85,29.88,29.51,11,5,0,0.00
2013-12-3,16.0,9.3,4.0,13.0,5.3,0.0,86,83,81,30.28,29.88,16,11,0,0.00
2013-12-4,4.0,1.0,-9.0,0.0,-3.7,-15.0,82,79,76,30.41,30.27,17,13,0,0.00
2013-12-5,-6.0,-12.3,-19.0,-12.0,-17.7,-24.0,77,76,73,30.71,30.40,13,8,0,0.00
2013-12-6,-11.0,-18.0,-24.0,-17.0,-23.7,-30.0,76,74,70,30.90,30.71,12,6,0,0.00
2013-12-7,-11.0,-21.0,-28.0,-17.0,-28.0,-99.9,76,72,70,30.90,30.52,9,3,0,0.00
2013-12-8,-3.0,-14.2,-27.0,-9.0,-19.8,-33.0,77,75,72,30.53,30.29,17,6,0,0.00
2013-12-9,17.0,-1.1,-18.0,12.0,-6.4,-23.0,85,78,73,30.41,29.88,28,10,0,0.00
2013-12-10,17.0,5.0,-18.0,13.0,-0.0,-23.0,86,79,72,30.59,30.01,16,7,0,0.00
2013-12-11,22.0,4.1,-21.0,13.0,-1.9,-27.0,83,76,67,30.59,30.32,12,3,0,0.00
2013-12-12,34.0,22.2,7.0,24.0,16.3,3.0,85,78,65,30.31,30.00,8,2,0,0.00
2013-12-13,11.0,5.9,3.0,8.0,1.7,-1.0,86,82,79,30.35,30.01,8,5,0,0.00
2013-12-14,13.0,8.5,0.0,8.0,2.6,-99.9,85,79,74,30.37,30.08,11,5,0,0.00
2013-12-15,40.0,25.6,10.0,30.0,19.4,5.0,90,77,66,30.08,29.84,22,9,0,0.00
2013-12-16,33.0,30.5,25.0,28.0,25.3,19.0,90,81,70,30.21,29.96,20,12,0,0.00
2013-12-17,33.0,21.3,11.0,26.0,15.6,7.0,85,79,70,30.27,29.72,13,4,0,0.00
2013-12-18,37.0,24.2,1.0,28.0,16.6,-5.0,82,73,63,30.13,29.65,17,9,0,0.00
2013-12-19,2.0,-3.4,-13.0,-3.0,-8.6,-18.0,80,77,75,30.40,30.13,8,3,0,0.00
2013-12-20,11.0,-2.2,-14.0,5.0,-7.5,-20.0,81,78,73,30.25,29.92,7,2,0,0.00
2013-12-21,4.0,0.6,-6.0,-1.0,-5.3,-99.9,81,79,77,30.27,29.93,10,4,0,0.00
2013-12-22,-1.0,-11.0,-22.0,-6.0,-16.2,-29.0,78,76,73,30.75,30.29,13,3,0,0.00
2013-12-23,18.0,-6.2,-31.0,11.0,-11.3,-37.0,85,77,70,30.75,30.07,12,5,0,0.00
2013-12-24,32.0,26.8,18.0,28.0,22.5,15.0,90,84,75,30.21,30.02,18,10,0,0.00
2013-12-25,32.0,24.9,15.0,25.0,18.8,12.0,89,77,65,30.32,29.99,17,5,0,0.00
2013-12-26,40.0,31.3,24.0,30.0,23.6,18.0,82,73,59,30.15,29.90,17,6,0,0.00
2013-12-27,45.0,36.3,30.0,32.0,28.6,25.0,87,74,60,30.01,29.72,14,3,0,0.00
2013-12-28,39.0,10.8,-4.0,30.0,2.5,-99.9,80,71,67,30.63,29.69,30,10,0,0.00
2013-12-29,15.0,7.1,-3.0,11.0,1.4,-9.0,86,77,69,30.61,29.99,8,3,0,0.00
2013-12-30,18.0,8.7,2.0,15.0,3.3,-4.0,87,78,69,30.37,30.01,14,7,0,0.00
2013-12-31,2.0,-0.4,-2.0,-3.0,-5.4,-7.0,80,79,78,30.34,30.19,12,8,0,0.00
2014-1-1,6.0,4.2,1.0,2.0,-0.5,-4.0,83,81,78,30.55,30.33,11,5,0,0.00
2014-1-2,30.0,12.5,-7.0,26.0,8.7,-12.0,92,84,78,30.46,29.75,7,3,0,0.00